[[{"header":{"parameterUnit":"m.s-1","parameterCategory":1,"la1":30.2991,"la2":30.254,"lo1":-89.0895,"lo2":-89.0444,"dy":0.0017,"dx":0.0017,"nx":28,"ny":28,"refTime":"2023-06-25T21:00:00:Z","depth":0,"parameterNumber":2,"parameterNumberName":"U-component_of_WINDS"},"data":[0,0,0,0,0,0,0,0,0,0,0,0,0,0,0,0,0,0,0,0,0,0,0,0,0,0,0,0,0,0,0,0,0,0,0,0,0,0,0,0,0,0,0,0,0,0,0,0,0,0,0,0,0,0,0,0,0,0,2.2407,2.2408,0,2.2461,2.2462,2.2462,2.2467,2.2466,2.2466,2.2465,2.2524,2.2526,2.2528,0,0,0,0,0,0,0,0,0,0,0,0,0,2.2313,2.2315,2.2407,2.2408,2.2408,2.2461,2.2462,2.2462,2.2467,2.2466,2.2466,2.2465,2.2523,2.2526,2.2528,0,0,0,0,0,0,0,0,0,0,0,0,0,2.2359,2.2315,2.2407,2.2417,2.2418,2.2461,2.2462,2.2463,2.2467,2.2466,2.2465,2.2464,2.2522,2.2525,2.2529,2.2566,0,0,2.2538,2.254,0,0,0,0,0,0,0,0,2.2357,2.2363,2.2415,2.2416,2.2418,2.2456,2.245,2.2497,2.2467,2.2449,2.2465,2.2464,2.2502,2.2507,2.2519,2.2568,2.2571,2.2538,2.254,2.2542,2.2543,0,0,0,0,0,0,0,2.2353,2.236,2.2429,2.2416,2.2418,2.242,2.2426,2.2459,2.248,2.245,2.2451,2.2457,2.2503,2.2516,2.2521,2.2572,2.2538,2.2541,2.2543,2.2544,2.2658,2.2659,0,0,0,0,0,0,2.2348,2.2358,2.2427,2.243,2.2384,2.2423,2.2429,2.2445,2.248,2.2484,2.2458,2.2457,2.2511,2.2517,2.2523,2.2571,2.2542,2.2545,2.2547,2.2657,2.2658,2.2659,0,0,0,0,0,0,2.2346,2.2354,2.2425,2.2394,2.2403,2.2425,2.2443,2.2446,2.2459,2.2485,2.2489,2.2467,2.2511,2.2518,2.2555,2.2573,2.2546,2.2549,2.2655,2.2657,2.2658,2.2665,0,0,0,0,0,0,2.2343,2.2353,2.2366,2.2394,2.2405,2.2455,2.2444,2.2448,2.2465,2.2464,2.2495,2.2499,2.2511,2.2551,2.2559,2.2577,2.2551,2.2654,2.2656,2.2658,2.2664,2.2667,2.267,0,0,0,0,0,2.2339,2.2366,2.2367,2.2375,2.2421,2.2456,2.2462,2.2474,2.2466,2.248,2.2497,2.2498,2.2569,2.2554,2.2563,2.2583,2.2653,2.2655,2.2658,2.2662,2.2666,2.267,0,0,0,0,0,0,2.234,2.237,2.2371,2.2407,2.2429,2.2457,2.2475,2.2477,2.2503,2.2501,2.2516,2.2523,2.256,2.2575,2.2558,2.2622,2.261,2.2615,2.2611,2.2615,2.2618,2.2614,2.2554,0,0,0,0,0,2.2344,2.2368,2.2393,2.2423,2.2434,2.2452,2.2468,2.2475,2.2499,2.2508,2.2528,2.2552,2.258,2.2598,2.2625,2.2666,2.2674,2.2684,2.2687,2.2689,2.2693,2.2719,2.2724,2.2667,2.2667,2.2667,0,0,2.2353,2.2372,2.2387,2.2423,2.2441,2.2468,2.246,2.2488,2.2508,2.2513,2.2549,2.2565,2.2593,2.2633,2.2651,2.2646,2.2711,2.2692,2.2694,2.2697,2.2722,2.2727,2.2732,2.2669,2.2669,2.2668,0,0,2.2383,2.2399,2.2427,2.2445,2.2472,2.2484,2.2491,2.2519,2.2529,2.2566,2.2571,2.2596,2.2643,2.2664,2.268,2.2721,2.2724,2.2729,2.2746,2.277,2.2775,2.2779,2.2796,2.2801,2.2733,2.2733,2.2733,0,2.2391,2.243,2.2441,2.2469,2.2486,2.2491,2.252,2.2538,2.2573,2.2585,2.2579,2.264,2.2659,2.2705,2.2715,2.2727,2.2738,2.2726,2.2773,2.2777,2.2781,2.2797,2.2803,2.2734,2.2734,2.2734,2.2733,0,2.244,2.2467,2.2486,2.2519,2.2539,2.2567,2.2584,2.2603,2.2609,2.2623,2.2662,2.2685,2.2718,2.2729,2.2735,2.2777,2.2773,2.277,2.2759,2.2787,2.2803,2.2809,2.2735,2.2734,2.2734,2.2734,0,0,2.2471,2.2511,2.2518,2.2534,2.2565,2.2587,2.2617,2.2649,2.2666,2.269,2.2717,2.2758,2.2756,2.2775,2.2783,2.2805,2.2838,2.2799,2.28,2.2807,2.2889,2.2892,2.2899,2.284,2.2841,2.2842,2.2887,0,2.2506,2.2558,2.257,2.2616,2.2642,2.2648,2.2675,2.2698,2.2712,2.2739,2.2755,2.2784,2.2778,2.279,2.2811,2.283,2.2855,2.2826,2.2868,2.2869,2.2862,2.2906,2.291,2.2951,2.2893,2.2894,2.2894,0,2.2553,2.2579,2.2627,2.2657,2.2669,2.2692,2.2724,2.2748,2.2775,2.2784,2.2806,2.2813,2.2847,2.2834,2.2882,2.2862,2.288,2.2892,2.2894,2.29,2.2884,2.2915,2.2964,2.2971,2.2904,2.2903,2.2902,0,2.2574,2.262,2.2656,2.2669,2.2705,2.2721,2.2737,2.2763,2.2783,2.281,2.2823,2.2855,2.2873,2.2898,2.2914,2.2903,2.2962,2.295,2.2973,2.2973,2.2986,2.2985,2.304,2.2995,2.2994,2.2994,2.2994,0,2.2613,2.2642,2.2666,2.2688,2.2723,2.2737,2.2771,2.2787,2.2811,2.2838,2.2845,2.287,2.289,2.2918,2.2931,2.2971,2.2978,2.2988,2.2992,2.2989,2.2988,2.3001,2.3,2.2996,2.2996,2.2995,2.2995,0,2.2641,2.2658,2.2698,2.2728,2.2737,2.2761,2.2788,2.2811,2.2826,2.286,2.2869,2.2893,2.2927,2.2946,2.2989,2.2998,2.3043,2.3043,2.3033,2.3035,2.3058,2.3056,2.3125,2.3136,2.3081,2.3082,2.3082,0,2.2665,2.2689,2.2722,2.274,2.2756,2.2785,2.2805,2.2821,2.2841,2.2876,2.2895,2.293,2.2958,2.3013,2.3036,2.3069,2.3072,2.3094,2.3078,2.3075,2.3075,2.3074,2.3078,2.3098,2.3098,2.3098,2.3099,0,2.2708,2.2715,2.2743,2.2774,2.2797,2.2823,2.2848,2.2863,2.2883,2.2907,2.2942,2.2964,2.3008,2.3044,2.3079,2.3098,2.3103,2.3104,2.3111,2.3109,2.3103,2.3109,2.3043,2.3102,2.3102,2.3102,2.3102,2.3101,2.2736,2.2758,2.2786,2.2817,2.2838,2.2862,2.2886,2.2904,2.2933,2.297,2.2978,2.3015,2.3045,2.3093,2.3113,2.3144,2.314,2.315,2.3153,2.3156,2.3158,2.3097,2.315,2.315,2.315,2.315,2.315,0,2.278,2.2799,2.2827,2.2863,2.2888,2.289,2.2919,2.294,2.2973,2.2999,2.3028,2.3069,2.3104,2.313,2.3166,2.3186,2.3189,2.3195,2.3195,2.3199,2.3158,2.3149,2.3192,2.3192,2.3192,2.3192,2.3192,2.3192,2.2806,2.2844,2.2856,2.2905,2.2924,2.296,2.2977,2.3,2.3022,2.3068,2.3096,2.3112,2.314,2.3178,2.3211,2.3218,2.3232,2.3237,2.3245,2.3206,2.3202,2.3198,2.3189,2.324,2.324,2.3284,2.3284,2.3284]},{"header":{"parameterUnit":"m.s-1","parameterCategory":1,"la1":30.2991,"la2":30.254,"lo1":-89.0895,"lo2":-89.0444,"dy":0.0017,"dx":0.0017,"nx":28,"ny":28,"refTime":"2023-06-25T21:00:00:Z","depth":0,"parameterNumber":3,"parameterNumberName":"V-component_of_WINDS"},"data":[0,0,0,0,0,0,0,0,0,0,0,0,0,0,0,0,0,0,0,0,0,0,0,0,0,0,0,0,0,0,0,0,0,0,0,0,0,0,0,0,0,0,0,0,0,0,0,0,0,0,0,0,0,0,0,0,0,0,2.4364,2.4365,0,2.4472,2.4473,2.4475,2.4498,2.4497,2.4496,2.4495,2.4605,2.4609,2.4612,0,0,0,0,0,0,0,0,0,0,0,0,0,2.4173,2.4177,2.4364,2.4365,2.4367,2.4472,2.4473,2.4475,2.4498,2.4497,2.4496,2.4495,2.4604,2.4608,2.4613,0,0,0,0,0,0,0,0,0,0,0,0,0,2.4266,2.4178,2.4364,2.4391,2.4394,2.4472,2.4473,2.4475,2.4498,2.4497,2.4496,2.4494,2.4602,2.4608,2.4613,2.4671,0,0,2.463,2.4632,0,0,0,0,0,0,0,0,2.4261,2.4273,2.4385,2.4389,2.4393,2.447,2.4447,2.4541,2.4498,2.4459,2.4495,2.4494,2.4561,2.457,2.4593,2.4676,2.4681,2.4631,2.4634,2.4636,2.4638,0,0,0,0,0,0,0,2.4255,2.4269,2.4407,2.4387,2.4392,2.4396,2.4408,2.4464,2.4515,2.4462,2.4464,2.4476,2.4563,2.4587,2.4596,2.4683,2.463,2.4635,2.4639,2.4641,2.4814,2.4815,0,0,0,0,0,0,2.4244,2.4263,2.4403,2.441,2.4323,2.4401,2.4414,2.4447,2.4515,2.4524,2.4477,2.4477,2.4579,2.4589,2.4599,2.4669,2.4636,2.4641,2.4645,2.4812,2.4814,2.4815,0,0,0,0,0,0,2.4239,2.4256,2.4399,2.4337,2.4356,2.4405,2.4442,2.4449,2.4474,2.4526,2.4535,2.4493,2.4578,2.4592,2.4652,2.4673,2.4644,2.4649,2.4811,2.4813,2.4815,2.481,0,0,0,0,0,0,2.4234,2.4254,2.4278,2.4337,2.4359,2.4451,2.4443,2.4452,2.4483,2.4484,2.4544,2.4552,2.4578,2.4644,2.4657,2.468,2.4653,2.4809,2.4812,2.4814,2.4808,2.4811,2.4814,0,0,0,0,0,2.4227,2.4273,2.4279,2.4296,2.439,2.4452,2.4464,2.4494,2.4485,2.4508,2.4541,2.455,2.4668,2.465,2.4665,2.469,2.4808,2.4811,2.4814,2.4807,2.4811,2.4814,0,0,0,0,0,0,2.4216,2.4282,2.4289,2.4356,2.4398,2.4456,2.4487,2.4497,2.4543,2.4541,2.4575,2.4588,2.4646,2.4674,2.4652,2.4747,2.4738,2.4744,2.4727,2.4731,2.4733,2.4725,2.4658,0,0,0,0,0,2.4221,2.4267,2.4322,2.4375,2.4396,2.4437,2.4466,2.4484,2.4529,2.4547,2.4585,2.4628,2.4674,2.4704,2.475,2.4812,2.4823,2.4836,2.4839,2.4841,2.4846,2.4877,2.4882,2.4825,2.4825,2.4825,0,0,2.4232,2.4274,2.4301,2.4374,2.4409,2.4454,2.4452,2.4502,2.4535,2.4555,2.4613,2.4642,2.4691,2.4752,2.478,2.4777,2.4864,2.4845,2.4846,2.485,2.488,2.4886,2.489,2.4827,2.4827,2.4826,0,0,2.4276,2.4313,2.436,2.4394,2.4447,2.4473,2.4484,2.454,2.4559,2.4618,2.4633,2.4672,2.4753,2.4786,2.4814,2.4865,2.4874,2.4879,2.4893,2.4923,2.4928,2.4932,2.4948,2.4953,2.4883,2.4883,2.4883,0,2.4284,2.4354,2.4383,2.443,2.446,2.4479,2.4525,2.4557,2.4622,2.4641,2.4637,2.4734,2.477,2.4836,2.4848,2.4871,2.4882,2.4873,2.4925,2.4929,2.4934,2.4949,2.4955,2.4884,2.4884,2.4884,2.4884,0,2.4359,2.4406,2.4438,2.4498,2.4532,2.4579,2.4613,2.4644,2.4658,2.4684,2.4742,2.4784,2.4837,2.4854,2.4869,2.4922,2.4917,2.4918,2.491,2.4939,2.4954,2.496,2.4884,2.4884,2.4884,2.4884,0,0,2.4401,2.4474,2.4485,2.4511,2.4568,2.4605,2.4651,2.4702,2.4726,2.4769,2.4806,2.4871,2.4871,2.4902,2.4921,2.4947,2.4981,2.4945,2.4946,2.4948,2.5038,2.5037,2.5043,2.4987,2.4989,2.499,2.5033,0,2.445,2.4533,2.4559,2.4628,2.4671,2.4687,2.4726,2.4764,2.4789,2.4827,2.4855,2.4899,2.4897,2.4915,2.4942,2.4972,2.5,2.4969,2.5021,2.5023,2.5008,2.5052,2.5051,2.509,2.504,2.5041,2.5042,0,2.4519,2.4562,2.4635,2.4683,2.4702,2.4737,2.4783,2.4821,2.4863,2.4879,2.4911,2.4927,2.4972,2.496,2.5022,2.5,2.5023,2.504,2.5042,2.5048,2.5034,2.5057,2.5104,2.5109,2.5052,2.5051,2.505,0,2.454,2.4615,2.4668,2.469,2.4748,2.4771,2.4797,2.4838,2.4865,2.4906,2.4923,2.4969,2.4993,2.5027,2.5053,2.5042,2.5111,2.5102,2.5124,2.5123,2.5139,2.5137,2.5188,2.5154,2.5154,2.5154,2.5154,0,2.4591,2.4635,2.4677,2.4709,2.4757,2.4785,2.4831,2.4857,2.4892,2.4928,2.4945,2.4978,2.5011,2.5048,2.5068,2.5114,2.5126,2.5138,2.5143,2.5137,2.5135,2.5152,2.5149,2.5156,2.5155,2.5155,2.5155,0,2.4623,2.4653,2.4711,2.476,2.4773,2.4806,2.4847,2.4878,2.4902,2.4947,2.4959,2.4996,2.504,2.5069,2.5125,2.5138,2.5188,2.5193,2.5174,2.5176,2.5196,2.5193,2.5259,2.5268,2.5229,2.5229,2.5229,0,2.4654,2.4687,2.4739,2.4764,2.4789,2.483,2.4857,2.4885,2.4913,2.4961,2.4985,2.5029,2.5066,2.5134,2.5166,2.5208,2.5213,2.5233,2.5219,2.521,2.5211,2.5208,2.521,2.5235,2.5235,2.5236,2.5236,0,2.4704,2.4716,2.4756,2.48,2.4832,2.4868,2.4904,2.4924,2.4957,2.4987,2.5031,2.506,2.5115,2.5158,2.5202,2.5226,2.5236,2.5239,2.5246,2.524,2.5227,2.5232,2.5179,2.5238,2.5238,2.5238,2.5238,2.5237,2.4735,2.4764,2.4804,2.4847,2.4876,2.4909,2.4939,2.4965,2.5003,2.5051,2.5064,2.5109,2.5147,2.5207,2.5231,2.5265,2.5263,2.5274,2.5276,2.5278,2.5277,2.5221,2.5274,2.5274,2.5274,2.5274,2.5274,0,2.4785,2.481,2.4849,2.4898,2.4931,2.4936,2.4975,2.5002,2.5042,2.5076,2.5111,2.516,2.5201,2.5234,2.5275,2.5296,2.5301,2.5306,2.5304,2.5309,2.5278,2.5267,2.5301,2.5301,2.5301,2.5301,2.5301,2.5301,2.4814,2.4863,2.4879,2.4942,2.4967,2.5012,2.5033,2.5062,2.5089,2.5143,2.5176,2.5197,2.523,2.5273,2.531,2.5318,2.5332,2.5335,2.5345,2.5315,2.5312,2.5309,2.5299,2.5339,2.5339,2.5373,2.5373,2.5373]}]]